weather.gov     
National Weather Service

Terminal Aerodrome Forecast
NWS Homepage
This page is being discontinued on March 12, 2014.
The same data is available at this site. Please update your bookmarks.
Thank you, and we apologize for the inconvenience.
Please send an email to SR-SRH.Webmaster@noaa.gov with any concerns.


Current Version
Previous Version:    01  02  03  04  05  06  07  08  09  10  11  12  13  14  15  16  17  18  19  20  21  22  23  24  25  26  27  28  29  30  
   31  32  33  
[Printable]
392
FTUS45 KGJT 232342
TAFRIL
TAF
KRIL 232342Z 2400/2424 29010KT P6SM VCTS SCT100CB BKN180
      TEMPO 2400/2402 VRB20G30KT -TSRA BKN100CB
     FM240200 16009G17KT P6SM VCTS SCT100CB BKN150
     FM240400 VRB05KT P6SM FEW120 BKN180
     FM241900 29010KT P6SM VCTS SCT120CB BKN150=


392
FTUS45 KGJT 232342
TAFRIL
TAF
KRIL 232342Z 2400/2424 29010KT P6SM VCTS SCT100CB BKN180
      TEMPO 2400/2402 VRB20G30KT -TSRA BKN100CB
     FM240200 16009G17KT P6SM VCTS SCT100CB BKN150
     FM240400 VRB05KT P6SM FEW120 BKN180
     FM241900 29010KT P6SM VCTS SCT120CB BKN150=




U.S. Dept. of Commerce
NOAA National Weather Service
1325 East West Highway
Silver Spring, MD 20910
E-mail: w-nws.webmaster@noaa.gov
Page last modified: May 16, 2007
NATIONAL WEATHER SERVICE: for Safety, for Work, for Fun - FOR LIFE